Time,TemperatureF,DewpointF,PressureIn,WindDirection,WindDirectionDegrees,WindSpeedMPH,WindSpeedGustMPH,Humidity,HourlyPrecipIn,Conditions,Clouds,dailyrainin,SoftwareType,DateUTC
2013-01-24 00:04:00,-9.9,-26.0,30.48,North,0,11.0,15.0,44,0.00,,,0.00,meteohub,2013-01-24 06:04:00,
2013-01-24 00:09:00,-9.8,-25.8,30.49,North,0,14.0,14.0,44,0.00,,,0.00,meteohub,2013-01-24 06:09:00,
2013-01-24 00:14:00,-9.9,-26.0,30.49,NW,315,12.0,14.0,44,0.00,,,0.00,meteohub,2013-01-24 06:14:00,
2013-01-24 00:19:00,-9.9,-26.0,30.50,NW,315,12.0,14.0,44,0.00,,,0.00,meteohub,2013-01-24 06:19:00,
2013-01-24 00:24:00,-9.8,-25.8,30.49,North,0,11.0,14.0,44,0.00,,,0.00,meteohub,2013-01-24 06:24:00,
2013-01-24 00:30:00,-9.8,-25.8,30.48,North,0,10.0,14.0,44,0.00,,,0.00,meteohub,2013-01-24 06:30:00,
2013-01-24 00:35:00,-9.9,-26.0,30.48,SW,225,10.0,13.0,44,0.00,,,0.00,meteohub,2013-01-24 06:35:00,
2013-01-24 00:40:00,-9.9,-26.0,30.48,North,0,9.0,11.0,44,0.00,,,0.00,meteohub,2013-01-24 06:40:00,
2013-01-24 00:45:00,-10.1,-26.0,30.49,North,0,9.0,12.0,44,0.00,,,0.00,meteohub,2013-01-24 06:45:00,
2013-01-24 00:50:00,-10.1,-26.0,30.49,North,0,10.0,11.0,44,0.00,,,0.00,meteohub,2013-01-24 06:50:00,
2013-01-24 00:55:00,-9.9,-26.0,30.49,North,0,9.0,11.0,44,0.00,,,0.00,meteohub,2013-01-24 06:55:00,
2013-01-24 01:00:00,-9.8,-25.8,30.48,North,0,9.0,11.0,44,0.00,,,0.00,meteohub,2013-01-24 07:00:00,
2013-01-24 01:05:00,-9.8,-25.8,30.48,North,0,8.0,10.0,44,0.00,,,0.00,meteohub,2013-01-24 07:05:00,
2013-01-24 01:11:00,-9.8,-26.1,30.49,North,0,7.0,9.0,43,0.00,,,0.00,meteohub,2013-01-24 07:11:00,
2013-01-24 01:16:00,-9.6,-26.0,30.49,North,0,8.0,9.0,43,0.00,,,0.00,meteohub,2013-01-24 07:16:00,
2013-01-24 01:21:00,-9.6,-26.0,30.48,North,0,6.0,9.0,43,0.00,,,0.00,meteohub,2013-01-24 07:21:00,
2013-01-24 01:26:00,-9.4,-26.3,30.48,North,0,7.0,9.0,42,0.00,,,0.00,meteohub,2013-01-24 07:26:00,
2013-01-24 01:31:00,-9.4,-26.3,30.48,North,0,8.0,9.0,42,0.00,,,0.00,meteohub,2013-01-24 07:31:00,
2013-01-24 01:36:00,-9.6,-26.0,30.48,North,0,6.0,9.0,43,0.00,,,0.00,meteohub,2013-01-24 07:36:00,
2013-01-24 01:42:00,-9.6,-26.0,30.48,North,0,8.0,8.0,43,0.00,,,0.00,meteohub,2013-01-24 07:42:00,
2013-01-24 01:47:00,-9.4,-26.3,30.48,North,0,8.0,8.0,42,0.00,,,0.00,meteohub,2013-01-24 07:47:00,
2013-01-24 01:52:00,-9.2,-26.1,30.48,North,0,8.0,8.0,42,0.00,,,0.00,meteohub,2013-01-24 07:52:00,
2013-01-24 01:57:00,-9.2,-26.1,30.48,North,0,8.0,8.0,42,0.00,,,0.00,meteohub,2013-01-24 07:57:00,
2013-01-24 02:02:00,-9.0,-26.0,30.48,North,0,6.0,8.0,42,0.00,,,0.00,meteohub,2013-01-24 08:02:00,
2013-01-24 02:08:00,-8.9,-25.8,30.49,North,0,6.0,8.0,42,0.00,,,0.00,meteohub,2013-01-24 08:08:00,
2013-01-24 02:13:00,-8.7,-25.6,30.48,North,0,6.0,8.0,42,0.00,,,0.00,meteohub,2013-01-24 08:13:00,
2013-01-24 02:18:00,-8.7,-25.6,30.49,North,0,4.0,8.0,42,0.00,,,0.00,meteohub,2013-01-24 08:18:00,
2013-01-24 02:23:00,-8.5,-25.4,30.49,North,0,7.0,8.0,42,0.00,,,0.00,meteohub,2013-01-24 08:23:00,
2013-01-24 02:28:00,-8.5,-25.4,30.49,North,0,6.0,8.0,42,0.00,,,0.00,meteohub,2013-01-24 08:28:00,
2013-01-24 02:33:00,-8.5,-26.0,30.50,North,0,7.0,7.0,41,0.00,,,0.00,meteohub,2013-01-24 08:33:00,
2013-01-24 02:38:00,-8.3,-25.8,30.49,North,0,8.0,8.0,41,0.00,,,0.00,meteohub,2013-01-24 08:38:00,
2013-01-24 02:44:00,-8.3,-25.8,30.50,North,0,6.0,8.0,41,0.00,,,0.00,meteohub,2013-01-24 08:44:00,
2013-01-24 02:49:00,-8.1,-25.6,30.50,North,0,6.0,8.0,41,0.00,,,0.00,meteohub,2013-01-24 08:49:00,
2013-01-24 02:54:00,-8.1,-25.6,30.50,North,0,4.0,8.0,41,0.00,,,0.00,meteohub,2013-01-24 08:54:00,
2013-01-24 02:59:00,-8.1,-25.6,30.50,North,0,6.0,7.0,41,0.00,,,0.00,meteohub,2013-01-24 08:59:00,
2013-01-24 03:04:00,-8.1,-25.6,30.51,North,0,5.0,7.0,41,0.00,,,0.00,meteohub,2013-01-24 09:04:00,
2013-01-24 03:09:00,-8.0,-25.4,30.51,North,0,4.0,7.0,41,0.00,,,0.00,meteohub,2013-01-24 09:09:00,
2013-01-24 03:15:00,-8.0,-25.8,30.50,North,0,4.0,7.0,40,0.00,,,0.00,meteohub,2013-01-24 09:15:00,
2013-01-24 03:20:00,-7.8,-25.6,30.50,NE,45,4.0,7.0,40,0.00,,,0.00,meteohub,2013-01-24 09:20:00,
2013-01-24 03:25:00,-7.8,-25.6,30.49,NE,45,3.0,7.0,40,0.00,,,0.00,meteohub,2013-01-24 09:25:00,
2013-01-24 03:30:00,-7.8,-25.6,30.49,NE,45,5.0,6.0,40,0.00,,,0.00,meteohub,2013-01-24 09:30:00,
2013-01-24 03:35:00,-7.6,-23.8,30.50,NE,45,8.0,8.0,44,0.00,,,0.00,meteohub,2013-01-24 09:35:00,
2013-01-24 03:40:00,-7.6,-23.8,30.50,East,90,6.0,8.0,44,0.00,,,0.00,meteohub,2013-01-24 09:40:00,
2013-01-24 03:45:00,-7.4,-23.6,30.49,NE,45,5.0,8.0,44,0.00,,,0.00,meteohub,2013-01-24 09:45:00,
2013-01-24 03:50:00,-7.6,-23.8,30.48,NE,45,8.0,8.0,44,0.00,,,0.00,meteohub,2013-01-24 09:50:00,
2013-01-24 03:56:00,-7.4,-23.6,30.46,NE,45,11.0,11.0,44,0.00,,,0.00,meteohub,2013-01-24 09:56:00,
2013-01-24 04:01:00,-7.4,-23.6,30.46,NE,45,9.0,11.0,44,0.00,,,0.00,meteohub,2013-01-24 10:01:00,
2013-01-24 04:06:00,-7.6,-24.2,30.45,ENE,68,11.0,14.0,43,0.00,,,0.00,meteohub,2013-01-24 10:06:00,
2013-01-24 04:11:00,-7.4,-24.0,30.45,ENE,68,11.0,14.0,43,0.00,,,0.00,meteohub,2013-01-24 10:11:00,
2013-01-24 04:16:00,-7.4,-24.0,30.46,NE,45,10.0,14.0,43,0.00,,,0.00,meteohub,2013-01-24 10:16:00,
2013-01-24 04:21:00,-7.2,-23.8,30.45,NE,45,11.0,13.0,43,0.00,,,0.00,meteohub,2013-01-24 10:21:00,
2013-01-24 04:27:00,-7.1,-23.6,30.46,East,90,9.0,12.0,43,0.00,,,0.00,meteohub,2013-01-24 10:27:00,
2013-01-24 04:32:00,-6.9,-23.4,30.46,East,90,8.0,11.0,43,0.00,,,0.00,meteohub,2013-01-24 10:32:00,
2013-01-24 04:37:00,-6.7,-23.3,30.46,East,90,8.0,11.0,43,0.00,,,0.00,meteohub,2013-01-24 10:37:00,
2013-01-24 04:42:00,-6.7,-23.3,30.46,SE,135,9.0,11.0,43,0.00,,,0.00,meteohub,2013-01-24 10:42:00,
2013-01-24 04:47:00,-6.7,-23.3,30.46,SE,135,8.0,11.0,43,0.00,,,0.00,meteohub,2013-01-24 10:47:00,
2013-01-24 04:52:00,-6.3,-23.1,30.46,SE,135,9.0,9.0,43,0.00,,,0.00,meteohub,2013-01-24 10:52:00,
2013-01-24 04:57:00,-6.3,-23.1,30.47,ESE,113,9.0,11.0,43,0.00,,,0.00,meteohub,2013-01-24 10:57:00,
2013-01-24 05:02:00,-6.3,-23.1,30.47,SE,135,8.0,11.0,43,0.00,,,0.00,meteohub,2013-01-24 11:02:00,
2013-01-24 05:08:00,-6.3,-23.1,30.47,East,90,9.0,11.0,43,0.00,,,0.00,meteohub,2013-01-24 11:08:00,
2013-01-24 05:13:00,-6.2,-22.9,30.46,SE,135,9.0,10.0,43,0.00,,,0.00,meteohub,2013-01-24 11:13:00,
2013-01-24 05:18:00,-6.0,-22.7,30.45,SE,135,9.0,10.0,43,0.00,,,0.00,meteohub,2013-01-24 11:18:00,
2013-01-24 05:23:00,-6.0,-22.7,30.45,SE,135,9.0,12.0,43,0.00,,,0.00,meteohub,2013-01-24 11:23:00,
2013-01-24 05:28:00,-6.0,-22.7,30.45,East,90,11.0,12.0,43,0.00,,,0.00,meteohub,2013-01-24 11:28:00,
2013-01-24 05:33:00,-6.0,-22.7,30.45,East,90,12.0,14.0,43,0.00,,,0.00,meteohub,2013-01-24 11:33:00,
2013-01-24 05:38:00,-6.0,-22.7,30.44,SE,135,14.0,14.0,43,0.00,,,0.00,meteohub,2013-01-24 11:38:00,
2013-01-24 05:44:00,-5.8,-22.9,30.44,East,90,12.0,14.0,42,0.00,,,0.00,meteohub,2013-01-24 11:44:00,
2013-01-24 05:49:00,-6.0,-22.7,30.45,SE,135,13.0,14.0,43,0.00,,,0.00,meteohub,2013-01-24 11:49:00,
2013-01-24 05:54:00,-6.0,-22.7,30.45,East,90,11.0,15.0,43,0.00,,,0.00,meteohub,2013-01-24 11:54:00,
2013-01-24 05:59:00,-5.8,-22.9,30.45,East,90,11.0,15.0,42,0.00,,,0.00,meteohub,2013-01-24 11:59:00,
2013-01-24 06:04:00,-5.8,-22.9,30.46,SE,135,12.0,15.0,42,0.00,,,0.00,meteohub,2013-01-24 12:04:00,
2013-01-24 06:09:00,-5.6,-22.7,30.48,SE,135,10.0,15.0,42,0.00,,,0.00,meteohub,2013-01-24 12:09:00,
2013-01-24 06:14:00,-5.4,-22.5,30.48,SE,135,9.0,14.0,42,0.00,,,0.00,meteohub,2013-01-24 12:14:00,
2013-01-24 06:19:00,-5.4,-22.5,30.48,SE,135,11.0,14.0,42,0.00,,,0.00,meteohub,2013-01-24 12:19:00,
2013-01-24 06:24:00,-5.3,-22.5,30.48,SE,135,11.0,13.0,42,0.00,,,0.00,meteohub,2013-01-24 12:24:00,
2013-01-24 06:29:00,-5.3,-22.5,30.49,SE,135,9.0,13.0,42,0.00,,,0.00,meteohub,2013-01-24 12:29:00,
2013-01-24 06:34:00,-5.3,-22.5,30.48,SE,135,11.0,12.0,42,0.00,,,0.00,meteohub,2013-01-24 12:34:00,
2013-01-24 06:40:00,-5.1,-22.4,30.49,SE,135,8.0,12.0,42,0.00,,,0.00,meteohub,2013-01-24 12:40:00,
2013-01-24 06:45:00,-5.1,-22.4,30.49,SE,135,9.0,11.0,42,0.00,,,0.00,meteohub,2013-01-24 12:45:00,
2013-01-24 06:50:00,-5.1,-22.4,30.49,SE,135,10.0,11.0,42,0.00,,,0.00,meteohub,2013-01-24 12:50:00,
2013-01-24 06:55:00,-4.9,-22.2,30.49,SE,135,10.0,11.0,42,0.00,,,0.00,meteohub,2013-01-24 12:55:00,
2013-01-24 07:00:00,-4.7,-22.0,30.49,SE,135,11.0,11.0,42,0.00,,,0.00,meteohub,2013-01-24 13:00:00,
2013-01-24 07:05:00,-4.9,-22.2,30.49,SE,135,9.0,11.0,42,0.00,,,0.00,meteohub,2013-01-24 13:05:00,
2013-01-24 07:10:00,-4.9,-22.2,30.48,SE,135,10.0,11.0,42,0.00,,,0.00,meteohub,2013-01-24 13:10:00,
2013-01-24 07:15:00,-4.7,-22.0,30.48,SE,135,11.0,13.0,42,0.00,,,0.00,meteohub,2013-01-24 13:15:00,
2013-01-24 07:20:00,-4.5,-21.8,30.47,SE,135,12.0,13.0,42,0.00,,,0.00,meteohub,2013-01-24 13:20:00,
2013-01-24 07:25:00,-4.5,-21.3,30.47,SE,135,13.0,13.0,43,0.00,,,0.00,meteohub,2013-01-24 13:25:00,
2013-01-24 07:30:00,-4.5,-21.3,30.48,SE,135,9.0,13.0,43,0.00,,,0.00,meteohub,2013-01-24 13:30:00,
2013-01-24 07:35:00,-4.5,-21.3,30.48,South,180,12.0,13.0,43,0.00,,,0.00,meteohub,2013-01-24 13:35:00,
2013-01-24 07:40:00,-4.7,-21.5,30.47,SE,135,11.0,13.0,43,0.00,,,0.00,meteohub,2013-01-24 13:40:00,
2013-01-24 07:45:00,-4.5,-21.3,30.46,SE,135,14.0,14.0,43,0.00,,,0.00,meteohub,2013-01-24 13:45:00,
2013-01-24 07:50:00,-4.5,-21.3,30.46,SE,135,10.0,14.0,43,0.00,,,0.00,meteohub,2013-01-24 13:50:00,
2013-01-24 07:56:00,-4.5,-21.3,30.45,SE,135,14.0,14.0,43,0.00,,,0.00,meteohub,2013-01-24 13:56:00,
2013-01-24 08:01:00,-4.5,-21.3,30.44,SE,135,11.0,14.0,43,0.00,,,0.00,meteohub,2013-01-24 14:01:00,
2013-01-24 08:06:00,-4.4,-21.3,30.44,SE,135,15.0,15.0,43,0.00,,,0.00,meteohub,2013-01-24 14:06:00,
2013-01-24 08:11:00,-4.2,-21.1,30.43,SE,135,11.0,15.0,43,0.00,,,0.00,meteohub,2013-01-24 14:11:00,
2013-01-24 08:16:00,-4.0,-21.3,30.43,SE,135,13.0,15.0,42,0.00,,,0.00,meteohub,2013-01-24 14:16:00,
2013-01-24 08:21:00,-4.0,-21.3,30.43,SE,135,11.0,15.0,42,0.00,,,0.00,meteohub,2013-01-24 14:21:00,
2013-01-24 08:26:00,-3.8,-21.1,30.42,SE,135,13.0,14.0,42,0.00,,,0.00,meteohub,2013-01-24 14:26:00,
2013-01-24 08:31:00,-3.8,-21.1,30.42,SE,135,14.0,15.0,42,0.00,,,0.00,meteohub,2013-01-24 14:31:00,
2013-01-24 08:36:00,-3.6,-20.9,30.42,SE,135,16.0,16.0,42,0.00,,,0.00,meteohub,2013-01-24 14:36:00,
2013-01-24 08:41:00,-3.5,-20.7,30.42,SE,135,16.0,16.0,42,0.00,,,0.00,meteohub,2013-01-24 14:41:00,
2013-01-24 08:47:00,-3.5,-20.7,30.42,SE,135,17.0,18.0,42,0.00,,,0.00,meteohub,2013-01-24 14:47:00,
2013-01-24 08:52:00,-3.3,-20.7,30.42,SE,135,17.0,18.0,42,0.00,,,0.00,meteohub,2013-01-24 14:52:00,
2013-01-24 08:57:00,-3.1,-20.6,30.41,SE,135,15.0,18.0,42,0.00,,,0.00,meteohub,2013-01-24 14:57:00,
2013-01-24 09:02:00,-2.9,-20.4,30.43,SE,135,18.0,18.0,42,0.00,,,0.00,meteohub,2013-01-24 15:02:00,
2013-01-24 09:07:00,-2.9,-20.4,30.43,SE,135,17.0,18.0,42,0.00,,,0.00,meteohub,2013-01-24 15:07:00,
2013-01-24 09:12:00,-2.7,-20.2,30.42,SE,135,17.0,18.0,42,0.00,,,0.00,meteohub,2013-01-24 15:12:00,
2013-01-24 09:17:00,-2.6,-20.0,30.42,SE,135,18.0,18.0,42,0.00,,,0.00,meteohub,2013-01-24 15:17:00,
2013-01-24 09:22:00,-2.4,-19.8,30.41,SE,135,20.0,20.0,42,0.00,,,0.00,meteohub,2013-01-24 15:22:00,
2013-01-24 09:28:00,-2.2,-20.2,30.41,SE,135,17.0,20.0,41,0.00,,,0.00,meteohub,2013-01-24 15:28:00,
2013-01-24 09:33:00,-2.0,-20.0,30.41,SE,135,19.0,21.0,41,0.00,,,0.00,meteohub,2013-01-24 15:33:00,
2013-01-24 09:38:00,-2.0,-20.0,30.40,SE,135,18.0,21.0,41,0.00,,,0.00,meteohub,2013-01-24 15:38:00,
2013-01-24 09:43:00,-1.8,-19.8,30.40,SE,135,17.0,22.0,41,0.00,,,0.00,meteohub,2013-01-24 15:43:00,
2013-01-24 09:48:00,-1.7,-19.1,30.40,SE,135,20.0,22.0,42,0.00,,,0.00,meteohub,2013-01-24 15:48:00,
2013-01-24 09:53:00,-1.5,-19.5,30.40,SE,135,20.0,22.0,41,0.00,,,0.00,meteohub,2013-01-24 15:53:00,
2013-01-24 09:58:00,-1.5,-18.9,30.40,SE,135,20.0,21.0,42,0.00,,,0.00,meteohub,2013-01-24 15:58:00,
2013-01-24 10:03:00,-1.3,-18.8,30.41,SE,135,22.0,22.0,42,0.00,,,0.00,meteohub,2013-01-24 16:03:00,
2013-01-24 10:08:00,-1.1,-18.8,30.40,SE,135,21.0,23.0,42,0.00,,,0.00,meteohub,2013-01-24 16:08:00,
2013-01-24 10:13:00,-1.1,-18.8,30.40,SE,135,18.0,23.0,42,0.00,,,0.00,meteohub,2013-01-24 16:13:00,
2013-01-24 10:18:00,-0.8,-18.4,30.40,SE,135,19.0,23.0,42,0.00,,,0.00,meteohub,2013-01-24 16:18:00,
2013-01-24 10:23:00,-0.4,-18.4,30.41,SE,135,21.0,23.0,41,0.00,,,0.00,meteohub,2013-01-24 16:23:00,
2013-01-24 10:28:00,-0.6,-18.2,30.40,SE,135,19.0,21.0,42,0.00,,,0.00,meteohub,2013-01-24 16:28:00,
2013-01-24 10:34:00,-0.4,-18.4,30.41,SE,135,19.0,21.0,41,0.00,,,0.00,meteohub,2013-01-24 16:34:00,
2013-01-24 10:39:00,-0.2,-18.4,30.40,SE,135,20.0,21.0,41,0.00,,,0.00,meteohub,2013-01-24 16:39:00,
2013-01-24 10:44:00,0.0,-18.2,30.40,SE,135,19.0,23.0,41,0.00,,,0.00,meteohub,2013-01-24 16:44:00,
2013-01-24 10:49:00,0.3,-17.9,30.40,SE,135,18.0,23.0,41,0.00,,,0.00,meteohub,2013-01-24 16:49:00,
2013-01-24 10:54:00,0.7,-17.5,30.40,South,180,20.0,23.0,41,0.00,,,0.00,meteohub,2013-01-24 16:54:00,
2013-01-24 10:59:00,0.5,-17.7,30.40,SE,135,20.0,21.0,41,0.00,,,0.00,meteohub,2013-01-24 16:59:00,
2013-01-24 11:04:00,0.7,-17.5,30.40,SE,135,17.0,22.0,41,0.00,,,0.00,meteohub,2013-01-24 17:04:00,
2013-01-24 11:09:00,0.9,-17.3,30.40,SE,135,21.0,22.0,41,0.00,,,0.00,meteohub,2013-01-24 17:09:00,
2013-01-24 11:14:00,0.9,-17.3,30.40,SE,135,20.0,22.0,41,0.00,,,0.00,meteohub,2013-01-24 17:14:00,
2013-01-24 11:19:00,1.0,-17.1,30.39,SE,135,19.0,23.0,41,0.00,,,0.00,meteohub,2013-01-24 17:19:00,
2013-01-24 11:24:00,1.4,-15.0,30.40,SE,135,21.0,23.0,45,0.00,,,0.00,meteohub,2013-01-24 17:24:00,
2013-01-24 11:29:00,1.4,-14.6,30.39,SE,135,20.0,23.0,46,0.00,,,0.00,meteohub,2013-01-24 17:29:00,
2013-01-24 11:35:00,1.4,-14.6,30.39,SE,135,18.0,22.0,46,0.00,,,0.00,meteohub,2013-01-24 17:35:00,
2013-01-24 11:40:00,1.8,-14.3,30.38,SE,135,20.0,21.0,46,0.00,,,0.00,meteohub,2013-01-24 17:40:00,
2013-01-24 11:45:00,2.1,-13.9,30.37,SE,135,22.0,22.0,46,0.00,,,0.00,meteohub,2013-01-24 17:45:00,
2013-01-24 11:50:00,2.3,-13.7,30.36,SE,135,23.0,23.0,46,0.00,,,0.00,meteohub,2013-01-24 17:50:00,
2013-01-24 11:55:00,2.3,-13.7,30.35,SE,135,22.0,23.0,46,0.00,,,0.00,meteohub,2013-01-24 17:55:00,
2013-01-24 12:00:00,2.5,-13.5,30.35,SE,135,24.0,24.0,46,0.00,,,0.00,meteohub,2013-01-24 18:00:00,
2013-01-24 12:05:00,2.8,-13.2,30.35,SE,135,21.0,24.0,46,0.00,,,0.00,meteohub,2013-01-24 18:05:00,
2013-01-24 12:11:00,3.0,-13.0,30.35,SE,135,18.0,24.0,46,0.00,,,0.00,meteohub,2013-01-24 18:11:00,
2013-01-24 12:16:00,3.4,-13.2,30.34,SE,135,22.0,24.0,45,0.00,,,0.00,meteohub,2013-01-24 18:16:00,
2013-01-24 12:21:00,3.4,-13.2,30.33,SE,135,20.0,24.0,45,0.00,,,0.00,meteohub,2013-01-24 18:21:00,
2013-01-24 12:26:00,3.7,-12.8,30.32,SE,135,24.0,26.0,45,0.00,,,0.00,meteohub,2013-01-24 18:26:00,
2013-01-24 12:31:00,3.9,-12.6,30.33,SE,135,23.0,26.0,45,0.00,,,0.00,meteohub,2013-01-24 18:31:00,
2013-01-24 12:36:00,3.9,-12.6,30.32,South,180,21.0,26.0,45,0.00,,,0.00,meteohub,2013-01-24 18:36:00,
2013-01-24 12:41:00,4.3,-12.3,30.33,SE,135,23.0,24.0,45,0.00,,,0.00,meteohub,2013-01-24 18:41:00,
2013-01-24 12:46:00,4.5,-11.7,30.32,SE,135,23.0,23.0,46,0.00,,,0.00,meteohub,2013-01-24 18:46:00,
2013-01-24 12:51:00,4.5,-11.7,30.32,SE,135,22.0,25.0,46,0.00,,,0.00,meteohub,2013-01-24 18:51:00,
2013-01-24 12:56:00,4.8,-11.4,30.31,SE,135,23.0,25.0,46,0.00,,,0.00,meteohub,2013-01-24 18:56:00,
2013-01-24 13:01:00,4.8,-11.4,30.31,SE,135,22.0,25.0,46,0.00,,,0.00,meteohub,2013-01-24 19:01:00,
2013-01-24 13:06:00,5.2,-11.6,30.30,SE,135,23.0,24.0,45,0.00,,,0.00,meteohub,2013-01-24 19:06:00,
2013-01-24 13:12:00,5.2,-11.0,30.31,SSE,158,20.0,25.0,46,0.00,,,0.00,meteohub,2013-01-24 19:12:00,
2013-01-24 13:17:00,5.5,-10.8,30.31,SE,135,22.0,25.0,46,0.00,,,0.00,meteohub,2013-01-24 19:17:00,
2013-01-24 13:22:00,5.7,-10.7,30.31,SE,135,21.0,25.0,46,0.00,,,0.00,meteohub,2013-01-24 19:22:00,
2013-01-24 13:27:00,5.9,-10.5,30.31,SE,135,20.0,24.0,46,0.00,,,0.00,meteohub,2013-01-24 19:27:00,
2013-01-24 13:32:00,6.3,-10.1,30.30,SE,135,20.0,24.0,46,0.00,,,0.00,meteohub,2013-01-24 19:32:00,
2013-01-24 13:37:00,6.4,-9.9,30.30,SE,135,24.0,24.0,46,0.00,,,0.00,meteohub,2013-01-24 19:37:00,
2013-01-24 13:42:00,6.8,-10.1,30.30,SE,135,22.0,24.0,45,0.00,,,0.00,meteohub,2013-01-24 19:42:00,
2013-01-24 13:47:00,7.2,-9.2,30.29,SSE,158,23.0,24.0,46,0.00,,,0.00,meteohub,2013-01-24 19:47:00,
2013-01-24 13:52:00,6.6,-9.8,30.28,SSE,158,25.0,25.0,46,0.00,,,0.00,meteohub,2013-01-24 19:52:00,
2013-01-24 13:57:00,6.6,-9.8,30.27,SE,135,22.0,25.0,46,0.00,,,0.00,meteohub,2013-01-24 19:57:00,
2013-01-24 14:02:00,6.6,-9.8,30.27,SE,135,25.0,26.0,46,0.00,,,0.00,meteohub,2013-01-24 20:02:00,
2013-01-24 14:07:00,6.6,-9.8,30.27,SE,135,23.0,27.0,46,0.00,,,0.00,meteohub,2013-01-24 20:07:00,
2013-01-24 14:12:00,6.6,-9.8,30.26,SE,135,23.0,27.0,46,0.00,,,0.00,meteohub,2013-01-24 20:12:00,
2013-01-24 14:18:00,6.8,-10.1,30.25,SE,135,27.0,28.0,45,0.00,,,0.00,meteohub,2013-01-24 20:18:00,
2013-01-24 14:23:00,6.8,-10.1,30.25,South,180,25.0,28.0,45,0.00,,,0.00,meteohub,2013-01-24 20:23:00,
2013-01-24 14:28:00,7.0,-9.9,30.24,SE,135,27.0,28.0,45,0.00,,,0.00,meteohub,2013-01-24 20:28:00,
2013-01-24 14:33:00,7.2,-9.2,30.23,SE,135,27.0,28.0,46,0.00,,,0.00,meteohub,2013-01-24 20:33:00,
2013-01-24 14:38:00,7.3,-9.0,30.23,SE,135,24.0,28.0,46,0.00,,,0.00,meteohub,2013-01-24 20:38:00,
2013-01-24 14:43:00,7.7,-8.9,30.23,SE,135,27.0,30.0,46,0.00,,,0.00,meteohub,2013-01-24 20:43:00,
2013-01-24 14:48:00,7.9,-8.7,30.23,SE,135,26.0,30.0,46,0.00,,,0.00,meteohub,2013-01-24 20:48:00,
2013-01-24 14:53:00,8.2,-8.7,30.23,SE,135,24.0,30.0,45,0.00,,,0.00,meteohub,2013-01-24 20:53:00,
2013-01-24 14:58:00,8.2,-8.7,30.22,SE,135,25.0,28.0,45,0.00,,,0.00,meteohub,2013-01-24 20:58:00,
2013-01-24 15:03:00,8.2,-8.7,30.21,SE,135,27.0,27.0,45,0.00,,,0.00,meteohub,2013-01-24 21:03:00,
2013-01-24 15:08:00,8.2,-9.2,30.21,SE,135,23.0,28.0,44,0.00,,,0.00,meteohub,2013-01-24 21:08:00,
2013-01-24 15:13:00,8.4,-9.0,30.21,SE,135,27.0,31.0,44,0.00,,,0.00,meteohub,2013-01-24 21:13:00,
2013-01-24 15:18:00,8.6,-9.4,30.21,SE,135,26.0,31.0,43,0.00,,,0.00,meteohub,2013-01-24 21:18:00,
2013-01-24 15:23:00,8.8,-9.2,30.21,SE,135,25.0,29.0,43,0.00,,,0.00,meteohub,2013-01-24 21:23:00,
2013-01-24 15:29:00,8.8,-9.2,30.20,SE,135,22.0,28.0,43,0.00,,,0.00,meteohub,2013-01-24 21:29:00,
2013-01-24 15:34:00,9.0,-9.0,30.20,SE,135,25.0,27.0,43,0.00,,,0.00,meteohub,2013-01-24 21:34:00,
2013-01-24 15:39:00,9.1,-8.9,30.20,SE,135,24.0,26.0,43,0.00,,,0.00,meteohub,2013-01-24 21:39:00,
2013-01-24 15:44:00,9.3,-8.7,30.19,SE,135,22.0,26.0,43,0.00,,,0.00,meteohub,2013-01-24 21:44:00,
2013-01-24 15:49:00,9.3,-8.7,30.20,SE,135,21.0,25.0,43,0.00,,,0.00,meteohub,2013-01-24 21:49:00,
2013-01-24 15:54:00,9.3,-9.2,30.19,SE,135,23.0,25.0,42,0.00,,,0.00,meteohub,2013-01-24 21:54:00,
2013-01-24 15:59:00,9.3,-9.2,30.19,SE,135,21.0,25.0,42,0.00,,,0.00,meteohub,2013-01-24 21:59:00,
2013-01-24 16:04:00,9.3,-9.2,30.18,SE,135,23.0,26.0,42,0.00,,,0.00,meteohub,2013-01-24 22:04:00,
2013-01-24 16:10:00,9.5,-9.0,30.18,SE,135,21.0,26.0,42,0.00,,,0.00,meteohub,2013-01-24 22:10:00,
2013-01-24 16:15:00,9.5,-9.0,30.18,SE,135,18.0,27.0,42,0.00,,,0.00,meteohub,2013-01-24 22:15:00,
2013-01-24 16:20:00,9.5,-9.0,30.18,SE,135,21.0,27.0,42,0.00,,,0.00,meteohub,2013-01-24 22:20:00,
2013-01-24 16:25:00,9.7,-8.9,30.17,SE,135,21.0,27.0,42,0.00,,,0.00,meteohub,2013-01-24 22:25:00,
2013-01-24 16:30:00,9.7,-8.9,30.17,SE,135,21.0,24.0,42,0.00,,,0.00,meteohub,2013-01-24 22:30:00,
2013-01-24 16:35:00,9.7,-8.9,30.17,SE,135,22.0,25.0,42,0.00,,,0.00,meteohub,2013-01-24 22:35:00,
2013-01-24 16:40:00,9.7,-9.2,30.16,SE,135,22.0,27.0,41,0.00,,,0.00,meteohub,2013-01-24 22:40:00,
2013-01-24 16:45:00,9.7,-8.9,30.15,SE,135,27.0,27.0,42,0.00,,,0.00,meteohub,2013-01-24 22:45:00,
2013-01-24 16:50:00,9.7,-9.2,30.16,SE,135,24.0,27.0,41,0.00,,,0.00,meteohub,2013-01-24 22:50:00,
2013-01-24 16:55:00,9.7,-9.2,30.15,SE,135,27.0,27.0,41,0.00,,,0.00,meteohub,2013-01-24 22:55:00,
2013-01-24 17:00:00,9.9,-9.2,30.15,SSE,158,23.0,27.0,41,0.00,,,0.00,meteohub,2013-01-24 23:00:00,
2013-01-24 17:05:00,9.9,-8.7,30.15,SE,135,22.0,27.0,42,0.00,,,0.00,meteohub,2013-01-24 23:05:00,
2013-01-24 17:11:00,9.9,-8.7,30.15,SE,135,21.0,27.0,42,0.00,,,0.00,meteohub,2013-01-24 23:11:00,
2013-01-24 17:16:00,9.9,-8.7,30.16,SSE,158,22.0,26.0,42,0.00,,,0.00,meteohub,2013-01-24 23:16:00,
2013-01-24 17:21:00,10.0,-8.5,30.14,SE,135,20.0,26.0,42,0.00,,,0.00,meteohub,2013-01-24 23:21:00,
2013-01-24 17:26:00,10.0,-8.5,30.14,South,180,21.0,25.0,42,0.00,,,0.00,meteohub,2013-01-24 23:26:00,
2013-01-24 17:31:00,10.0,-8.5,30.13,SSE,158,24.0,25.0,42,0.00,,,0.00,meteohub,2013-01-24 23:31:00,
2013-01-24 17:36:00,10.0,-8.5,30.14,SE,135,24.0,25.0,42,0.00,,,0.00,meteohub,2013-01-24 23:36:00,
2013-01-24 17:41:00,10.0,-8.5,30.13,SE,135,23.0,26.0,42,0.00,,,0.00,meteohub,2013-01-24 23:41:00,
2013-01-24 17:47:00,10.0,-8.5,30.13,SE,135,22.0,26.0,42,0.00,,,0.00,meteohub,2013-01-24 23:47:00,
2013-01-24 17:52:00,10.2,-8.3,30.12,SE,135,27.0,27.0,42,0.00,,,0.00,meteohub,2013-01-24 23:52:00,
2013-01-24 17:57:00,10.2,-8.3,30.12,SE,135,24.0,27.0,42,0.00,,,0.00,meteohub,2013-01-24 23:57:00,
2013-01-24 18:02:00,10.2,-8.3,30.12,SE,135,22.0,28.0,42,0.00,,,0.00,meteohub,2013-01-25 00:02:00,
2013-01-24 18:07:00,10.2,-8.3,30.12,SE,135,23.0,28.0,42,0.00,,,0.00,meteohub,2013-01-25 00:07:00,
2013-01-24 18:12:00,10.4,-6.3,30.11,SE,135,23.0,28.0,46,0.00,,,0.00,meteohub,2013-01-25 00:12:00,
2013-01-24 18:17:00,10.4,-6.3,30.11,SE,135,26.0,27.0,46,0.00,,,0.00,meteohub,2013-01-25 00:17:00,
2013-01-24 18:22:00,10.4,-6.3,30.10,SSE,158,24.0,27.0,46,0.00,,,0.00,meteohub,2013-01-25 00:22:00,
2013-01-24 18:27:00,10.6,-6.2,30.11,SE,135,26.0,29.0,46,0.00,,,0.00,meteohub,2013-01-25 00:27:00,
2013-01-24 18:32:00,10.6,-6.2,30.09,SE,135,24.0,29.0,46,0.00,,,0.00,meteohub,2013-01-25 00:32:00,
2013-01-24 18:38:00,10.6,-6.2,30.08,SE,135,25.0,29.0,46,0.00,,,0.00,meteohub,2013-01-25 00:38:00,
2013-01-24 18:43:00,10.6,-6.2,30.08,SE,135,24.0,28.0,46,0.00,,,0.00,meteohub,2013-01-25 00:43:00,
2013-01-24 18:48:00,10.6,-6.2,30.07,SSE,158,27.0,28.0,46,0.00,,,0.00,meteohub,2013-01-25 00:48:00,
2013-01-24 18:53:00,10.8,-6.0,30.07,SE,135,27.0,27.0,46,0.00,,,0.00,meteohub,2013-01-25 00:53:00,
2013-01-24 18:58:00,10.8,-6.0,30.07,SSE,158,26.0,28.0,46,0.00,,,0.00,meteohub,2013-01-25 00:58:00,
2013-01-24 19:03:00,10.8,-6.0,30.07,SSE,158,23.0,28.0,46,0.00,,,0.00,meteohub,2013-01-25 01:03:00,
2013-01-24 19:08:00,10.9,-5.8,30.06,South,180,23.0,28.0,46,0.00,,,0.00,meteohub,2013-01-25 01:08:00,
2013-01-24 19:13:00,10.9,-5.8,30.06,SSW,203,28.0,28.0,46,0.00,,,0.00,meteohub,2013-01-25 01:13:00,
2013-01-24 19:18:00,10.9,-5.8,30.06,SE,135,27.0,28.0,46,0.00,,,0.00,meteohub,2013-01-25 01:18:00,
2013-01-24 19:23:00,11.1,-5.6,30.05,South,180,27.0,30.0,46,0.00,,,0.00,meteohub,2013-01-25 01:23:00,
2013-01-24 19:28:00,11.1,-5.6,30.06,SE,135,23.0,30.0,46,0.00,,,0.00,meteohub,2013-01-25 01:28:00,
2013-01-24 19:33:00,11.1,-5.3,30.04,SSE,158,25.0,30.0,47,0.00,,,0.00,meteohub,2013-01-25 01:33:00,
2013-01-24 19:38:00,11.3,-5.1,30.04,South,180,25.0,33.0,47,0.00,,,0.00,meteohub,2013-01-25 01:38:00,
2013-01-24 19:43:00,11.3,-5.1,30.03,SE,135,28.0,33.0,47,0.00,,,0.00,meteohub,2013-01-25 01:43:00,
2013-01-24 19:48:00,11.3,-5.1,30.03,SSE,158,27.0,33.0,47,0.00,,,0.00,meteohub,2013-01-25 01:48:00,
2013-01-24 19:54:00,11.5,-5.3,30.03,SSE,158,24.0,32.0,46,0.00,,,0.00,meteohub,2013-01-25 01:54:00,
2013-01-24 19:59:00,11.5,-5.3,30.02,South,180,25.0,32.0,46,0.00,,,0.00,meteohub,2013-01-25 01:59:00,
2013-01-24 20:04:00,11.5,-5.3,30.02,SSE,158,31.0,32.0,46,0.00,,,0.00,meteohub,2013-01-25 02:04:00,
2013-01-24 20:09:00,11.5,-5.3,30.02,South,180,28.0,32.0,46,0.00,,,0.00,meteohub,2013-01-25 02:09:00,
2013-01-24 20:14:00,11.7,-5.1,30.02,South,180,24.0,31.0,46,0.00,,,0.00,meteohub,2013-01-25 02:14:00,
2013-01-24 20:19:00,11.7,-5.1,30.03,SSE,158,25.0,31.0,46,0.00,,,0.00,meteohub,2013-01-25 02:19:00,
2013-01-24 20:24:00,11.8,-4.9,30.03,SSE,158,27.0,31.0,46,0.00,,,0.00,meteohub,2013-01-25 02:24:00,
2013-01-24 20:29:00,11.8,-4.9,30.04,SE,135,22.0,31.0,46,0.00,,,0.00,meteohub,2013-01-25 02:29:00,
2013-01-24 20:34:00,11.8,-4.9,30.04,South,180,19.0,27.0,46,0.00,,,0.00,meteohub,2013-01-25 02:34:00,
2013-01-24 20:39:00,11.8,-4.9,30.03,South,180,24.0,27.0,46,0.00,,,0.00,meteohub,2013-01-25 02:39:00,
2013-01-24 20:44:00,11.8,-4.9,30.04,South,180,24.0,27.0,46,0.00,,,0.00,meteohub,2013-01-25 02:44:00,
2013-01-24 20:49:00,11.8,-4.9,30.04,South,180,26.0,27.0,46,0.00,,,0.00,meteohub,2013-01-25 02:49:00,
2013-01-24 20:54:00,11.7,-5.1,30.03,South,180,21.0,27.0,46,0.00,,,0.00,meteohub,2013-01-25 02:54:00,
2013-01-24 20:59:00,11.7,-5.1,30.03,South,180,19.0,27.0,46,0.00,,,0.00,meteohub,2013-01-25 02:59:00,
2013-01-24 21:04:00,11.7,-5.1,30.04,South,180,22.0,26.0,46,0.00,,,0.00,meteohub,2013-01-25 03:04:00,
2013-01-24 21:09:00,11.7,-5.1,30.04,South,180,22.0,25.0,46,0.00,,,0.00,meteohub,2013-01-25 03:09:00,
2013-01-24 21:15:00,11.8,-4.9,30.04,South,180,24.0,25.0,46,0.00,,,0.00,meteohub,2013-01-25 03:15:00,
2013-01-24 21:20:00,12.0,-4.7,30.05,South,180,20.0,26.0,46,0.00,,,0.00,meteohub,2013-01-25 03:20:00,
2013-01-24 21:25:00,12.2,-5.1,30.05,South,180,20.0,26.0,45,0.00,,,0.00,meteohub,2013-01-25 03:25:00,
2013-01-24 21:30:00,12.2,-5.1,30.06,South,180,17.0,26.0,45,0.00,,,0.00,meteohub,2013-01-25 03:30:00,
2013-01-24 21:35:00,12.4,-4.9,30.05,South,180,15.0,24.0,45,0.00,,,0.00,meteohub,2013-01-25 03:35:00,
2013-01-24 21:40:00,12.6,-4.7,30.06,South,180,17.0,23.0,45,0.00,,,0.00,meteohub,2013-01-25 03:40:00,
2013-01-24 21:45:00,12.6,-4.4,30.05,South,180,21.0,23.0,46,0.00,,,0.00,meteohub,2013-01-25 03:45:00,
2013-01-24 21:50:00,12.7,-4.2,30.05,South,180,18.0,21.0,46,0.00,,,0.00,meteohub,2013-01-25 03:50:00,
2013-01-24 21:55:00,12.7,-4.2,30.05,South,180,19.0,21.0,46,0.00,,,0.00,meteohub,2013-01-25 03:55:00,
2013-01-24 22:01:00,12.7,-3.6,30.04,South,180,17.0,21.0,47,0.00,,,0.00,meteohub,2013-01-25 04:01:00,
2013-01-24 22:06:00,12.7,-3.6,30.03,South,180,17.0,20.0,47,0.00,,,0.00,meteohub,2013-01-25 04:06:00,
2013-01-24 22:11:00,12.7,-3.3,30.02,South,180,16.0,20.0,48,0.00,,,0.00,meteohub,2013-01-25 04:11:00,
2013-01-24 22:16:00,12.7,-3.3,30.02,South,180,18.0,20.0,48,0.00,,,0.00,meteohub,2013-01-25 04:16:00,
2013-01-24 22:21:00,12.9,-2.6,30.01,South,180,18.0,20.0,49,0.00,,,0.00,meteohub,2013-01-25 04:21:00,
2013-01-24 22:26:00,13.1,-2.6,30.02,South,180,18.0,20.0,49,0.00,,,0.00,meteohub,2013-01-25 04:26:00,
2013-01-24 22:31:00,13.3,-2.4,30.02,South,180,19.0,21.0,49,0.00,,,0.00,meteohub,2013-01-25 04:31:00,
2013-01-24 22:36:00,13.3,-2.4,30.01,South,180,17.0,21.0,49,0.00,,,0.00,meteohub,2013-01-25 04:36:00,
2013-01-24 22:41:00,13.3,-2.4,30.01,South,180,21.0,21.0,49,0.00,,,0.00,meteohub,2013-01-25 04:41:00,
2013-01-24 22:46:00,13.5,-1.7,30.01,South,180,18.0,21.0,50,0.00,,,0.00,meteohub,2013-01-25 04:46:00,
2013-01-24 22:51:00,13.5,-1.7,30.00,South,180,19.0,21.0,50,0.00,,,0.00,meteohub,2013-01-25 04:51:00,
2013-01-24 22:56:00,13.5,-1.7,30.01,South,180,18.0,21.0,50,0.00,,,0.00,meteohub,2013-01-25 04:56:00,
2013-01-24 23:00:00,13.5,-1.7,30.00,South,180,21.0,21.0,50,0.00,,,0.00,meteohub,2013-01-25 05:00:00,
2013-01-24 23:01:00,13.5,-1.7,30.00,South,180,20.0,21.0,50,0.00,,,0.00,meteohub,2013-01-25 05:01:00,
2013-01-24 23:02:00,13.5,-1.7,30.00,South,180,20.0,21.0,50,0.00,,,0.00,meteohub,2013-01-25 05:02:00,
2013-01-24 23:03:00,13.5,-1.7,30.00,South,180,20.0,21.0,50,0.00,,,0.00,meteohub,2013-01-25 05:03:00,
2013-01-24 23:08:00,13.3,-1.5,29.99,South,180,23.0,23.0,51,0.00,,,0.00,meteohub,2013-01-25 05:08:00,
2013-01-24 23:13:00,13.3,-1.5,29.98,South,180,22.0,23.0,51,0.00,,,0.00,meteohub,2013-01-25 05:13:00,
2013-01-24 23:18:00,13.3,-1.5,29.98,South,180,24.0,24.0,51,0.00,,,0.00,meteohub,2013-01-25 05:18:00,
2013-01-24 23:23:00,13.1,-1.3,29.96,South,180,24.0,24.0,52,0.00,,,0.00,meteohub,2013-01-25 05:23:00,
2013-01-24 23:28:00,12.9,-1.5,29.98,South,180,21.0,25.0,52,0.00,,,0.00,meteohub,2013-01-25 05:28:00,
2013-01-24 23:33:00,12.9,-1.5,29.99,South,180,19.0,28.0,52,0.00,,,0.00,meteohub,2013-01-25 05:33:00,
2013-01-24 23:38:00,12.9,-0.9,29.99,South,180,20.0,28.0,53,0.00,,,0.00,meteohub,2013-01-25 05:38:00,
2013-01-24 23:43:00,13.1,-0.8,29.99,South,180,22.0,28.0,53,0.00,,,0.00,meteohub,2013-01-25 05:43:00,
2013-01-24 23:48:00,13.1,-0.8,29.98,South,180,19.0,23.0,53,0.00,,,0.00,meteohub,2013-01-25 05:48:00,
2013-01-24 23:53:00,13.1,-0.8,29.99,South,180,21.0,23.0,53,0.00,,,0.00,meteohub,2013-01-25 05:53:00,
2013-01-24 23:58:00,13.1,-0.4,29.99,South,180,21.0,23.0,54,0.00,,,0.00,meteohub,2013-01-25 05:58:00,